Regional Weather Roundup
Issued by NWS

Home | Current Version | Previous Version | Text Only | Print | Product List | Glossary Off
Versions: 1 2 3 4 5 6 7 8 9 10 11 12 13 14 15 16 17 18 19 20 21 22 23 24 25 26 27 28 29 30 31 32 33 34 35 36 37 38 39 40 41 42 43 44 45 46 47 48 49 50

000
ASUS43 KBIS 201359
RWRND

NORTH DAKOTA REGIONAL WEATHER ROUNDUP
NATIONAL WEATHER SERVICE BISMARCK ND
800 AM CST SAT DEC 20 2014

NOTE: "FAIR" INDICATES FEW OR NO CLOUDS BELOW 12,000 FEET WITH NO
SIGNIFICANT WEATHER AND/OR OBSTRUCTIONS TO VISIBILITY.


NDZ001>003-009>011-017-201500-
NORTHWEST NORTH DAKOTA

CITY           SKY/WX    TMP DP  RH WIND       PRES   REMARKS
WILLISTON      CLOUDY    21  19  92 CALM      29.84S
MINOT          FOG       23  21  92 S7        29.88F VSB 1/4 WCI  15
$$

NDZ018>021-031>035-040>046-201500-
SOUTHWEST NORTH DAKOTA

CITY           SKY/WX    TMP DP  RH WIND       PRES   REMARKS
BISMARCK       CLOUDY    16  13  88 E6        29.92F WCI   7
GARRISON         N/A     19  16  88 E8        29.87F WCI   9
HETTINGER ARPT CLOUDY    31  24  75 W5        29.87S
$$

NDZ004>008-012>016-024-026-027-054-201500-
NORTHEAST NORTH DAKOTA

CITY           SKY/WX    TMP DP  RH WIND       PRES   REMARKS
GRAND FORKS    CLOUDY    27  26  96 S10       30.00S WCI  17
DEVILS LAKE    CLOUDY    21  14  73 CALM      29.94F
$$

NDZ022-023-025-028>030-036>039-047>053-201500-
SOUTHEAST NORTH DAKOTA

CITY           SKY/WX    TMP DP  RH WIND       PRES   REMARKS
FARGO          CLOUDY    30  26  85 S10       30.03R
JAMESTOWN      FOG       18  14  84 S8        29.96S VSB 3/4 WCI   8
$$



USA.gov is the U.S. government's official web portal to all federal, state and local government web resources and services.